Weather History for KFNT - March, 2013

Change the Weather History Date:

Sunday, March 17, 2013

  Actual Average Record
Temperature  
Mean Temperature 24 °F 34 °F  
Max Temperature 31 °F 44 °F 79 °F (2012)
Min Temperature 16 °F 25 °F -5 °F (1926)
Degree Days  
Heating Degree Days 41 31  
Month to date heating degree days 580 571  
Since 1 July heating degree days 5233 5659  
Cooling Degree Days 0 0  
Month to date cooling degree days 0 0  
Year to date cooling degree days 0 0  
Moisture  
Dew Point 13 °F    
Average Humidity 61    
Maximum Humidity 80    
Minimum Humidity 42    
Precipitation  
Precipitation 0.00 in 0.06 in 0.66 in (1980)
Month to date precipitation 0.61 0.95  
Year to date precipitation 6.07 4.06  
Snow  
Snow 0.00 in 0.20 in 12.60 in (1973)
Month to date snowfall 3.5 4.3  
Since 1 July snowfall 42.0 42.9  
Snow Depth 2.00 in    
Sea Level Pressure  
Sea Level Pressure 30.22 in    
Wind  
Wind Speed 10 mph (NE)    
Max Wind Speed 16 mph    
Max Gust Speed 22 mph    
Visibility 10 miles    
Events      
T = Trace of Precipitation, MM = Missing Value Source: NWS Daily Summary

Daily Weather History Graph

Daily Weather History Graph

Search for Another Location

Airport or City:

Trip Planner

Search our weather history database for the weather conditions in past years. The results will help you decide how hot, cold, wet, or windy it might be!

Date:

Astronomy

Mar. 17, 2013 Rise Set
Actual Time 7:43 AM EDT 7:44 PM EDT
Civil Twilight 7:14 AM EDT 8:12 PM EDT
Nautical Twilight 6:41 AM EDT 8:45 PM EDT
Astronomical Twilight 6:08 AM EDT 9:19 PM EDT
Moon 10:46 AM EDT (3/17) 12:59 AM EDT (3/17)
Length of Visible Light 12h 57m
Length of Day
12h 00m
Waxing Crescent, 31% of the Moon is Illuminated
Mar 17
Waxing Crescent
Mar 19
First Quarter
Mar 27
Full
Apr 3
Last Quarter
Apr 10
New

Hourly Weather History & Observations

Time (EDT) Temp. Windchill Dew Point Humidity Pressure Visibility Wind Dir Wind Speed Gust Speed Precip Events Conditions
12:53 AM 30.0 °F 22.4 °F 21.0 °F 69% 30.04 in 10.0 mi WSW 8.1 mph - N/A   Overcast
1:53 AM 28.9 °F 17.7 °F 19.0 °F 67% 30.06 in 10.0 mi West 15.0 mph - N/A   Overcast
2:10 AM 28.4 °F 17.0 °F 21.2 °F 74% 30.05 in 10.0 mi NW 15.0 mph - N/A   Overcast
2:37 AM 28.4 °F 19.7 °F 19.4 °F 69% 30.06 in 10.0 mi NNW 9.2 mph - N/A   Overcast
2:53 AM 27.0 °F 17.3 °F 19.9 °F 75% 30.10 in 10.0 mi NW 10.4 mph - N/A   Overcast
3:53 AM 23.0 °F 15.8 °F 16.0 °F 74% 30.12 in 10.0 mi NNW 5.8 mph - N/A   Clear
4:53 AM 21.9 °F 17.2 °F 15.1 °F 75% 30.12 in 10.0 mi West 3.5 mph - N/A   Scattered Clouds
5:53 AM 17.1 °F 7.6 °F 12.0 °F 81% 30.15 in 10.0 mi WNW 6.9 mph - N/A   Clear
6:53 AM 21.0 °F 10.6 °F 14.0 °F 74% 30.18 in 10.0 mi North 9.2 mph - N/A   Clear
7:53 AM 21.0 °F 9.9 °F 12.9 °F 71% 30.22 in 10.0 mi NNE 10.4 mph - N/A   Clear
8:53 AM 21.0 °F 9.9 °F 12.0 °F 68% 30.26 in 10.0 mi NE 10.4 mph - N/A   Clear
9:53 AM 23.0 °F 11.1 °F 10.0 °F 58% 30.29 in 10.0 mi NNE 12.7 mph 18.4 mph N/A   Partly Cloudy
10:53 AM 25.0 °F 12.6 °F 9.0 °F 51% 30.30 in 10.0 mi NE 15.0 mph - N/A   Mostly Cloudy
10:58 AM 24.8 °F 14.6 °F 8.6 °F 50% 30.26 in 10.0 mi NE 10.4 mph - N/A   Scattered Clouds
11:53 AM 26.1 °F 16.2 °F 8.1 °F 47% 30.30 in 10.0 mi NE 10.4 mph - N/A   Clear
12:53 PM 26.1 °F 19.4 °F 9.0 °F 49% 30.31 in 10.0 mi East 5.8 mph - N/A   Clear
1:53 PM 28.0 °F 20.8 °F 9.0 °F 45% 30.30 in 10.0 mi East 6.9 mph - N/A   Clear
2:53 PM 28.9 °F 22.8 °F 10.0 °F 45% 30.29 in 10.0 mi Variable 5.8 mph - N/A   Clear
3:53 PM 30.0 °F 20.5 °F 12.0 °F 47% 30.27 in 10.0 mi ENE 11.5 mph 20.7 mph N/A   Clear
4:53 PM 30.0 °F 20.5 °F 12.0 °F 47% 30.26 in 10.0 mi ENE 11.5 mph - N/A   Clear
5:53 PM 28.9 °F 19.8 °F 12.0 °F 49% 30.26 in 10.0 mi East 10.4 mph - N/A   Clear
6:53 PM 28.0 °F 18.6 °F 14.0 °F 56% 30.26 in 10.0 mi East 10.4 mph - N/A   Clear
7:53 PM 25.0 °F 13.6 °F 12.9 °F 60% 30.28 in 10.0 mi East 12.7 mph - N/A   Clear
8:53 PM 23.0 °F 11.1 °F 12.0 °F 63% 30.29 in 10.0 mi East 12.7 mph - N/A   Clear
9:53 PM 21.9 °F 10.4 °F 10.9 °F 63% 30.28 in 10.0 mi East 11.5 mph - N/A   Clear
10:53 PM 21.0 °F 9.9 °F 10.9 °F 65% 30.27 in 10.0 mi East 10.4 mph - N/A   Clear
11:53 PM 19.9 °F 9.3 °F 10.9 °F 68% 30.24 in 10.0 mi East 9.2 mph - N/A   Clear